Regional Weather Roundup
Issued by NWS

Home | Current Version | Previous Version | Text Only | Print | Product List | Glossary On
Versions: 1 2 3 4 5 6 7 8 9 10 11 12 13 14 15 16 17 18 19 20 21 22 23 24 25 26 27 28 29 30 31 32 33 34 35 36 37 38 39 40 41 42 43 44 45 46 47 48 49 50
000
ASPQ40 PGUM 211112
RWRPQ
WEATHER ROUNDUP FOR THE MARIANAS AND MICRONESIA
NATIONAL WEATHER SERVICE TIYAN GU
900 PM CHST TUE OCT 21 2014

GUZ001>004-211200-
MARIANA ISLANDS-

CITY           SKY/WX    TMP DP  RH WIND       PRES   REMARKS
GUAM AIRPORT   CLEAR     81  75  83 NE5       29.86R
ANDERSEN AFB   PTCLDY    81  75  83 NE8       29.86R
ROTA AIRPORT   NOT AVBL
TINIAN AP      NOT AVBL
SAIPAN AP      CLEAR     81 N/A N/A CALM      29.84R

$$

PMZ161-211200-
REPUBLIC OF PALAU-

CITY           SKY/WX    TMP DP  RH WIND       PRES   REMARKS
KOROR AP       NOT AVBL
KOROR WSO      MOCLDY    82  79  89 NW5       29.85R HX  93

$$

PMZ171>174-211200-
FEDERATED STATES OF MICRONESIA-

CITY           SKY/WX    TMP DP  RH WIND       PRES   REMARKS
YAP AIRPORT    MOCLDY    81  77  89 VRB6      29.84R
CHUUK AP       MOCLDY    81  81 100 VRB3      29.84R HX  91
POHNPEI AP     NOT AVBL
POHNPEI WSO    PTCLDY    79  75  89 SE5       29.87S
KOSRAE AP      NOT AVBL

$$

PMZ181-211200-
REPUBLIC OF THE MARSHALL ISLANDS-

CITY           SKY/WX    TMP DP  RH WIND       PRES   REMARKS
KWAJALEIN AP   PTCLDY    84  75  74 S10       29.86S HX  92
MAJURO AP      NOT AVBL
MAJURO WSO     MOCLDY    84  77  79 E6        29.86S HX  94

$$



USA.gov is the U.S. government's official web portal to all federal, state and local government web resources and services.